Northfield, Minnesota, United States (55057)
Lat: 44.46N, Lon: 93.16W
Wx Zone: MNZ077
Local Info
Past Weather Observations for Today

NOTE: This archive is for the closest National Weather Service station to Northfield. Information may differ from the station used for current weather conditions.

Click here for Long-term Archive

Time Weather Temperature Dewpoint Humidity Pressure Winds Precip Visibility
21:45
Overcast
32°F / 0°C 30°F / -1°C 93% 29.8 in
(1009 mb)
NNE 4.6 mph
(NNE 7 kph)
- 1 1/4SM
21:25
Overcast
32°F / 0°C 30°F / -1°C 93% 29.8 in
(1009 mb)
NE 3.5 mph
(NE 6 kph)
- 1 1/4SM
21:05
Overcast
32°F / 0°C 30°F / -1°C 93% 29.8 in
(1009 mb)
NE 3.5 mph
(NE 6 kph)
- 1 1/2SM
20:45
Overcast
32°F / 0°C 30°F / -1°C 93% 29.8 in
(1009 mb)
NE 5.8 mph
(NE 9 kph)
- 1 1/2SM
20:25
Overcast
32°F / 0°C 30°F / -1°C 93% 29.8 in
(1009 mb)
NE 5.8 mph
(NE 9 kph)
- 1 3/4SM
20:05
Overcast
32°F / 0°C 28°F / -2°C 87% 29.8 in
(1009 mb)
NE 5.8 mph
(NE 9 kph)
- 2 1/2SM
19:45
Overcast
32°F / 0°C 28°F / -2°C 87% 29.8 in
(1009 mb)
NE 3.5 mph
(NE 6 kph)
- 4SM
19:25
Overcast
32°F / 0°C 28°F / -2°C 87% 29.8 in
(1009 mb)
ENE 3.5 mph
(ENE 6 kph)
- 5SM
19:05
Overcast
32°F / 0°C 28°F / -2°C 87% 29.8 in
(1009 mb)
E 5.8 mph
(E 9 kph)
- 5SM
18:45
Overcast
32°F / 0°C 28°F / -2°C 87% 29.8 in
(1009 mb)
E 5.8 mph
(E 9 kph)
- 5SM
18:25
Overcast
32°F / 0°C 28°F / -2°C 87% 29.8 in
(1009 mb)
E 5.8 mph
(E 9 kph)
- 5SM
18:05
Overcast
32°F / 0°C 28°F / -2°C 87% 29.8 in
(1009 mb)
ENE 4.6 mph
(ENE 7 kph)
- 5SM
17:45
Overcast
34°F / 1°C 28°F / -2°C 81% 29.8 in
(1009 mb)
Calm - 5SM
17:25
Overcast
34°F / 1°C 28°F / -2°C 81% 29.8 in
(1009 mb)
Calm - 5SM
17:05
Overcast
32°F / 0°C 28°F / -2°C 87% 29.77 in
(1008 mb)
E 4.6 mph
(E 7 kph)
- 4SM
16:45
Overcast
32°F / 0°C 28°F / -2°C 87% 29.77 in
(1008 mb)
ESE 6.9 mph
(ESE 11 kph)
- 4SM
16:25
Overcast
32°F / 0°C 28°F / -2°C 87% 29.77 in
(1008 mb)
SE 5.8 mph
(SE 9 kph)
- 4SM
16:05
Overcast
34°F / 1°C 28°F / -2°C 81% 29.77 in
(1008 mb)
SE 4.6 mph
(SE 7 kph)
- 4SM
15:45
Overcast
34°F / 1°C 28°F / -2°C 81% 29.77 in
(1008 mb)
SE 6.9 mph
(SE 11 kph)
- 4SM
15:25
Overcast
32°F / 0°C 28°F / -2°C 87% 29.77 in
(1008 mb)
SE 5.8 mph
(SE 9 kph)
- 4SM
15:05
Overcast
32°F / 0°C 28°F / -2°C 87% 29.77 in
(1008 mb)
SSE 8.1 mph
(SSE 13 kph)
- 4SM
14:45
Overcast
32°F / 0°C 28°F / -2°C 87% 29.8 in
(1009 mb)
SSE 9.2 mph
(SSE 15 kph)
- 4SM
14:25
Overcast
32°F / 0°C 28°F / -2°C 87% 29.8 in
(1009 mb)
SSE 11.5 mph
(SSE 19 kph)
- 4SM
14:05
Overcast
32°F / 0°C 28°F / -2°C 87% 29.8 in
(1009 mb)
SE 8.1 mph
(SE 13 kph)
- 4SM
13:45
Overcast
32°F / 0°C 28°F / -2°C 87% 29.83 in
(1010 mb)
SE 11.5 mph
(SE 19 kph)
- 4SM
13:25
Overcast
32°F / 0°C 27°F / -3°C 80% 29.83 in
(1010 mb)
SSE 12.7 mph
(SSE 20 kph)
- 4SM
13:05
Overcast
30°F / -1°C 27°F / -3°C 86% 29.86 in
(1011 mb)
SE 11.5 mph
(SE 19 kph)
- 4SM
12:45
Overcast
32°F / 0°C 27°F / -3°C 80% 29.89 in
(1012 mb)
SSE 9.2 mph
(SSE 15 kph)
- 4SM
12:25
Overcast
30°F / -1°C 27°F / -3°C 86% 29.89 in
(1012 mb)
SSE 10.4 mph
(SSE 17 kph)
- 4SM
12:05
Overcast
30°F / -1°C 27°F / -3°C 86% 29.92 in
(1013 mb)
SE 6.9 mph
(SE 11 kph)
- 4SM
11:45
Overcast
30°F / -1°C 27°F / -3°C 86% 29.95 in
(1014 mb)
SE 6.9 mph
(SE 11 kph)
- 4SM
11:25
Overcast
30°F / -1°C 27°F / -3°C 86% 29.95 in
(1014 mb)
SSE 9.2 mph
(SSE 15 kph)
- 4SM
11:05
Overcast
28°F / -2°C 25°F / -4°C 86% 29.95 in
(1014 mb)
SSE 12.7 mph
(SSE 20 kph)
- 4SM
10:45
Overcast
28°F / -2°C 25°F / -4°C 86% 29.95 in
(1014 mb)
SE 11.5 mph
(SE 19 kph)
- 4SM
10:25
Overcast
28°F / -2°C 25°F / -4°C 86% 29.98 in
(1015 mb)
SSE 10.4 mph
(SSE 17 kph)
- 3SM
10:05
Overcast
28°F / -2°C 25°F / -4°C 86% 29.98 in
(1015 mb)
SSE 10.4 mph
(SSE 17 kph)
- 3SM
09:45
Overcast
28°F / -2°C 25°F / -4°C 86% 29.98 in
(1015 mb)
SSE 13.8 mph
(SSE 22 kph)
- 3SM
09:25
Overcast
28°F / -2°C 25°F / -4°C 86% 29.98 in
(1015 mb)
SSE 13.8 mph
(SSE 22 kph)
- 3SM
09:05
Overcast
28°F / -2°C 25°F / -4°C 86% 29.98 in
(1015 mb)
SE 9.2 mph
(SE 15 kph)
- 3SM
08:45
Overcast
28°F / -2°C 25°F / -4°C 86% 29.98 in
(1015 mb)
SE 9.2 mph
(SE 15 kph)
- 3SM
08:25
Overcast
28°F / -2°C 25°F / -4°C 86% 30.01 in
(1016 mb)
SE 10.4 mph
(SE 17 kph)
- 3SM
08:05
Overcast
28°F / -2°C 25°F / -4°C 86% 30.01 in
(1016 mb)
SSE 11.5 mph
(SSE 19 kph)
- 4SM
07:45
Overcast
28°F / -2°C 25°F / -4°C 86% 30.01 in
(1016 mb)
SSE 6.9 mph
(SSE 11 kph)
- 4SM
07:25
Overcast
28°F / -2°C 25°F / -4°C 86% 30.01 in
(1016 mb)
SSE 12.7 mph
(SSE 20 kph)
- 5SM
07:05
Overcast
28°F / -2°C 25°F / -4°C 86% 30.01 in
(1016 mb)
SE 11.5 mph
(SE 19 kph)
- 5SM
06:45
Overcast
28°F / -2°C 25°F / -4°C 86% 30.01 in
(1016 mb)
SSE 12.7 mph
(SSE 20 kph)
- 7SM
06:25
Overcast
28°F / -2°C 27°F / -3°C 93% 30.01 in
(1016 mb)
SSE 11.5 mph
(SSE 19 kph)
- 7SM
06:05
Overcast
28°F / -2°C 27°F / -3°C 93% 30.04 in
(1017 mb)
SSE 11.5 mph
(SSE 19 kph)
- 7SM
05:45
Overcast
30°F / -1°C 27°F / -3°C 86% 30.04 in
(1017 mb)
SSE 12.7 mph
(SSE 20 kph)
- 7SM
05:25
Overcast
30°F / -1°C 27°F / -3°C 86% 30.04 in
(1017 mb)
SSE 11.5 mph
(SSE 19 kph)
- 7SM
05:05
Overcast
30°F / -1°C 27°F / -3°C 86% 30.04 in
(1017 mb)
SSE 10.4 mph
(SSE 17 kph)
- 7SM
04:45
Overcast
30°F / -1°C 27°F / -3°C 86% 30.04 in
(1017 mb)
SSE 9.2 mph
(SSE 15 kph)
- 7SM
04:25
Overcast
30°F / -1°C 27°F / -3°C 86% 30.04 in
(1017 mb)
SE 10.4 mph
(SE 17 kph)
- 7SM
04:05
Overcast
30°F / -1°C 27°F / -3°C 86% 30.06 in
(1018 mb)
SSE 11.5 mph
(SSE 19 kph)
- 7SM
03:45
Overcast
30°F / -1°C 27°F / -3°C 86% 30.06 in
(1018 mb)
SSE 10.4 mph
(SSE 17 kph)
- 10SM
03:25
Overcast
30°F / -1°C 27°F / -3°C 86% 30.06 in
(1018 mb)
S 10.4 mph
(S 17 kph)
- 10SM
03:05
Overcast
30°F / -1°C 27°F / -3°C 86% 30.06 in
(1018 mb)
SSE 8.1 mph
(SSE 13 kph)
- 10SM
02:45
Overcast
30°F / -1°C 27°F / -3°C 86% 30.09 in
(1019 mb)
SSE 11.5 mph
(SSE 19 kph)
- 10SM
02:25
Overcast
30°F / -1°C 27°F / -3°C 86% 30.09 in
(1019 mb)
SSE 11.5 mph
(SSE 19 kph)
- 10SM
02:05
Overcast
30°F / -1°C 27°F / -3°C 86% 30.09 in
(1019 mb)
SSE 10.4 mph
(SSE 17 kph)
- 10SM
01:45
Overcast
30°F / -1°C 27°F / -3°C 86% 30.09 in
(1019 mb)
SSE 8.1 mph
(SSE 13 kph)
- 10SM
01:25
Overcast
30°F / -1°C 27°F / -3°C 86% 30.09 in
(1019 mb)
SE 9.2 mph
(SE 15 kph)
- 10SM
01:05
Overcast
30°F / -1°C 27°F / -3°C 86% 30.09 in
(1019 mb)
SSE 6.9 mph
(SSE 11 kph)
- 10SM
00:45
Overcast
30°F / -1°C 27°F / -3°C 86% 30.12 in
(1020 mb)
SSE 8.1 mph
(SSE 13 kph)
- 10SM
00:25
Overcast
32°F / 0°C 27°F / -3°C 80% 30.12 in
(1020 mb)
SSE 10.4 mph
(SSE 17 kph)
- 10SM
00:05
Overcast
32°F / 0°C 27°F / -3°C 80% 30.12 in
(1020 mb)
S 6.9 mph
(S 11 kph)
- 10SM
Time Weather Temperature Dewpoint Humidity Pressure Winds Precip Visibility


Weather for websites

WeatherForYou.com, LLC is not responsible for any damages or problems caused by this service. Current weather conditions are obtained from the closest station including government and personal stations which may have varying degrees of accuracy. Weather forecasts are derived from the NOAA NDFD. Like all things, this site belongs to Jesus Christ... He just trusts me to maintain it. If you have any questions or comments email webmaster@weatherforyou.com

Copyright © 2015, WeatherForYou.com LLC. All rights reserved.